Location: Fort Worth, Tx
(32.7431°N, 97.3695°W)
Time: 13:06:12
(UTC-04:00)

Transit 2A - Pass Details

Date: 27 February 2024
Orbit: 596 x 956 km, 66.7° (Epoch: 20 April)

Event Time Altitude Azimuth Distance (km) Brightness Sun altitude
Rises 20:13:37 0° 213° (SSW) 2,909 9.5 -11.0°
Reaches altitude 10° 20:15:57 10° 217° (SW) 1,972 8.7 -11.5°
Maximum altitude 20:20:17 60° 297° (WNW) 689 6.1 -12.4°
Drops below altitude 10° 20:24:32 10° 18° (NNE) 1,934 7.9 -13.3°
Sets 20:26:48 0° 22° (NNE) 2,847 8.7 -13.8°
